Weather History for Tracy, MN

Change the Weather History Date:

Thursday, January 9, 2014

  Actual Average (KMML) Record (KMML)
Temperature  
Mean Temperature 18 °F -  
Max Temperature 27 °F 16 °F 55 °F (2012)
Min Temperature 9 °F 0 °F -29 °F (1977)
Degree Days  
Heating Degree Days 47    
Moisture  
Dew Point 13 °F    
Average Humidity 75    
Maximum Humidity 89    
Minimum Humidity 71    
Precipitation  
Precipitation 0.00 in - - ()
Sea Level Pressure  
Sea Level Pressure 29.99 in    
Wind  
Wind Speed 17 mph (SSW)    
Max Wind Speed 30 mph    
Max Gust Speed 39 mph    
Visibility 10 miles    
Events      
Averages and records for this station are not official NWS values.
T = Trace of Precipitation, MM = Missing Value Source: NWS Daily Summary

Daily Weather History Graph

Daily Weather History Graph

Search for Another Location

Airport:

Trip Planner

Search our weather history database for the weather conditions in past years. The results will help you decide how hot, cold, wet, or windy it might be!

Date:

Astronomy

Jan. 09, 2014 Rise Set
Actual Time 7:57 AM CST 5:02 PM CST
Civil Twilight 7:24 AM CST 5:35 PM CST
Nautical Twilight 6:48 AM CST 6:11 PM CST
Astronomical Twilight 6:13 AM CST 6:46 PM CST
Moon 12:34 PM CST (1/9) 2:00 AM CST (1/9)
Length of Visible Light 10h 10m
Length of Day
9h 05m
Waxing Gibbous, 66% of the Moon is Illuminated
Jan 9
Waxing Gibbous
Jan 15
Full
Jan 23
Last Quarter
Jan 30
New
Feb 6
First Quarter

Hourly Weather History & Observations

Time (CST) Temp. Windchill Dew Point Humidity Pressure Visibility Wind Dir Wind Speed Gust Speed Precip Events Conditions
12:18 AM 9.5 °F -5.2 °F 3.6 °F 77% 30.28 in 10.0 mi South 11.5 mph 16.1 mph N/A   Overcast
12:37 AM 10.0 °F -6.5 °F 3.9 °F 76% 30.26 in 10.0 mi South 15.0 mph 18.4 mph N/A   Overcast
12:58 AM 10.4 °F -4.8 °F 4.1 °F 76% 30.26 in 10.0 mi South 12.7 mph - N/A   Overcast
1:18 AM 10.8 °F -5.0 °F 4.3 °F 75% 30.26 in 10.0 mi South 13.8 mph 20.7 mph N/A   Overcast
1:37 AM 11.1 °F -5.1 °F 4.6 °F 75% 30.24 in 10.0 mi South 15.0 mph 21.9 mph N/A   Overcast
1:58 AM 11.3 °F -4.9 °F 4.8 °F 75% 30.23 in 10.0 mi South 15.0 mph 20.7 mph N/A   Overcast
2:18 AM 11.8 °F -4.2 °F 5.0 °F 74% 30.23 in 10.0 mi South 15.0 mph 23.0 mph N/A   Overcast
2:38 AM 12.0 °F -4.0 °F 5.5 °F 75% 30.22 in 10.0 mi South 15.0 mph 23.0 mph N/A   Overcast
2:57 AM 12.7 °F -3.0 °F 6.3 °F 75% 30.22 in 10.0 mi South 15.0 mph 20.7 mph N/A   Overcast
3:17 AM 13.6 °F -2.4 °F 6.4 °F 73% 30.21 in 10.0 mi SSW 16.1 mph 24.2 mph N/A   Overcast
3:38 AM 14.0 °F -0.8 °F 6.6 °F 72% 30.20 in 10.0 mi SSW 13.8 mph 20.7 mph N/A   Overcast
3:58 AM 14.0 °F -1.4 °F 6.4 °F 72% 30.18 in 10.0 mi South 15.0 mph 25.3 mph N/A   Overcast
4:17 AM 14.4 °F -2.0 °F 6.6 °F 71% 30.17 in 10.0 mi South 17.3 mph 25.3 mph N/A   Overcast
4:38 AM 14.2 °F 0.0 °F 6.6 °F 72% 30.16 in 10.0 mi South 12.7 mph 23.0 mph N/A   Mostly Cloudy
4:57 AM 13.8 °F -1.7 °F 6.4 °F 72% 30.15 in 10.0 mi South 15.0 mph 23.0 mph N/A   Scattered Clouds
5:18 AM 14.0 °F -1.4 °F 6.6 °F 72% 30.14 in 10.0 mi South 15.0 mph 23.0 mph N/A   Clear
5:37 AM 14.0 °F -0.8 °F 6.6 °F 72% 30.13 in 10.0 mi South 13.8 mph 20.7 mph N/A   Clear
5:57 AM 14.0 °F -1.4 °F 6.8 °F 73% 30.12 in 10.0 mi South 15.0 mph 20.7 mph N/A   Clear
6:18 AM 14.4 °F -1.0 °F 6.8 °F 72% 30.11 in 10.0 mi South 15.0 mph 20.7 mph N/A   Clear
6:38 AM 14.0 °F -3.0 °F 6.8 °F 73% 30.10 in 10.0 mi South 18.4 mph 25.3 mph N/A   Clear
6:58 AM 14.0 °F -3.0 °F 6.8 °F 73% 30.09 in 10.0 mi South 18.4 mph 24.2 mph N/A   Scattered Clouds
7:18 AM 14.0 °F -3.4 °F 6.8 °F 73% 30.07 in 10.0 mi South 19.6 mph 26.5 mph N/A   Mostly Cloudy
7:38 AM 13.8 °F -1.7 °F 6.8 °F 74% 30.06 in 10.0 mi South 15.0 mph 25.3 mph N/A   Scattered Clouds
7:58 AM 13.8 °F -3.2 °F 6.8 °F 74% 30.06 in 10.0 mi South 18.4 mph 28.8 mph N/A   Scattered Clouds
8:17 AM 14.4 °F -3.0 °F 7.7 °F 75% 30.05 in 10.0 mi South 19.6 mph 32.2 mph N/A   Mostly Cloudy
8:38 AM 14.9 °F -2.3 °F 8.6 °F 76% 30.05 in 10.0 mi South 19.6 mph 27.6 mph N/A   Overcast
8:58 AM 14.7 °F -4.5 °F 9.5 °F 80% 30.03 in 10.0 mi SSW 25.3 mph 33.4 mph N/A   Overcast
9:18 AM 15.4 °F -3.2 °F 10.4 °F 80% 30.04 in 7.0 mi SSW 24.2 mph 34.5 mph N/A   Overcast
9:37 AM 16.2 °F -3.9 °F 10.9 °F 80% 30.03 in 7.0 mi SSW 29.9 mph 36.8 mph N/A   Overcast
9:57 AM 16.9 °F -0.5 °F 11.7 °F 80% 30.02 in 10.0 mi SSW 21.9 mph 35.7 mph N/A   Overcast
10:17 AM 18.0 °F 1.3 °F 12.0 °F 78% 30.02 in 10.0 mi South 20.7 mph 29.9 mph N/A   Overcast
10:38 AM 18.3 °F 1.8 °F 11.8 °F 76% 30.02 in 10.0 mi South 20.7 mph 27.6 mph N/A   Overcast
10:58 AM 18.5 °F 1.6 °F 11.7 °F 75% 30.01 in 10.0 mi SSW 21.9 mph 29.9 mph N/A   Mostly Cloudy
11:18 AM 18.3 °F 1.8 °F 11.7 °F 75% 30.00 in 10.0 mi South 20.7 mph 28.8 mph N/A   Scattered Clouds
11:38 AM 18.5 °F 1.3 °F 11.7 °F 75% 29.99 in 10.0 mi SSW 23.0 mph 32.2 mph N/A   Clear
11:57 AM 19.4 °F 2.8 °F 12.4 °F 74% 29.97 in 10.0 mi SSW 21.9 mph 31.1 mph N/A   Clear
12:17 PM 20.1 °F 3.8 °F 12.7 °F 73% 29.96 in 10.0 mi SSW 21.9 mph 29.9 mph N/A   Clear
12:38 PM 20.8 °F 5.1 °F 13.3 °F 73% 29.95 in 10.0 mi South 20.7 mph 32.2 mph N/A   Clear
12:58 PM 21.7 °F 5.9 °F 14.0 °F 72% 29.93 in 10.0 mi South 21.9 mph 28.8 mph N/A   Clear
1:18 PM 22.3 °F 7.0 °F 14.7 °F 73% 29.92 in 10.0 mi South 20.7 mph 31.1 mph N/A   Clear
1:38 PM 23.2 °F 8.6 °F 15.6 °F 73% 29.90 in 10.0 mi South 19.6 mph 32.2 mph N/A   Clear
1:57 PM 23.9 °F 8.8 °F 16.0 °F 72% 29.89 in 10.0 mi South 21.9 mph 31.1 mph N/A   Clear
2:38 PM 25.5 °F 12.4 °F 17.6 °F 72% 29.87 in 10.0 mi South 17.3 mph 32.2 mph N/A   Clear
2:58 PM 26.2 °F 11.9 °F 18.3 °F 72% 29.86 in 10.0 mi South 21.9 mph 31.1 mph N/A   Clear
3:17 PM 27.1 °F 13.8 °F 19.0 °F 72% 29.86 in 10.0 mi South 19.6 mph 27.6 mph N/A   Clear
3:37 PM 27.5 °F 13.2 °F 19.4 °F 72% 29.85 in 10.0 mi South 23.0 mph 31.1 mph N/A   Clear
3:58 PM 27.5 °F 14.2 °F 19.4 °F 72% 29.85 in 10.0 mi South 19.6 mph 28.8 mph N/A   Clear
4:18 PM 27.5 °F 13.9 °F 19.4 °F 72% 29.85 in 10.0 mi South 20.7 mph 28.8 mph N/A   Clear
5:18 PM 26.4 °F 14.0 °F 19.0 °F 74% 29.85 in 10.0 mi South 16.1 mph 25.3 mph N/A   Clear
5:38 PM 26.2 °F 13.4 °F 18.9 °F 74% 29.84 in 10.0 mi South 17.3 mph 25.3 mph N/A   Clear
5:58 PM 25.7 °F 12.7 °F 18.9 °F 75% 29.84 in 10.0 mi South 17.3 mph 24.2 mph N/A   Clear
6:17 PM 25.7 °F 12.7 °F 18.5 °F 74% 29.84 in 10.0 mi South 17.3 mph 25.3 mph N/A   Clear
6:37 PM 25.5 °F 12.0 °F 18.5 °F 75% 29.83 in 10.0 mi South 18.4 mph 26.5 mph N/A   Clear
6:57 PM 25.5 °F 11.6 °F 18.5 °F 75% 29.83 in 10.0 mi SSW 19.6 mph 26.5 mph N/A   Clear
7:18 PM 25.3 °F 11.4 °F 18.5 °F 75% 29.83 in 10.0 mi South 19.6 mph 28.8 mph N/A   Clear
7:38 PM 25.5 °F 10.9 °F 18.9 °F 76% 29.82 in 10.0 mi South 21.9 mph 28.8 mph N/A   Clear
7:58 PM 25.5 °F 10.9 °F 19.2 °F 77% 29.82 in 10.0 mi South 21.9 mph 32.2 mph N/A   Clear
8:18 PM 25.5 °F 10.6 °F 19.4 °F 78% 29.81 in 10.0 mi SSW 23.0 mph 29.9 mph N/A   Clear
8:38 PM 25.3 °F 11.4 °F 19.4 °F 78% 29.80 in 10.0 mi South 19.6 mph 27.6 mph N/A   Clear
8:58 PM 25.5 °F 10.3 °F 19.6 °F 78% 29.80 in 10.0 mi SSW 24.2 mph 29.9 mph N/A   Clear
9:18 PM 25.7 °F 10.8 °F 19.9 °F 79% 29.79 in 10.0 mi SSW 23.0 mph 31.1 mph N/A   Clear
9:38 PM 25.2 °F 10.4 °F 19.6 °F 79% 29.79 in 10.0 mi South 21.9 mph 28.8 mph N/A   Clear
9:58 PM 24.8 °F 10.7 °F 19.4 °F 80% 29.78 in 10.0 mi SSW 19.6 mph 27.6 mph N/A   Clear
10:17 PM 24.4 °F 10.2 °F 19.2 °F 81% 29.77 in 10.0 mi SSW 19.6 mph 31.1 mph N/A   Clear
10:38 PM 24.3 °F 8.0 °F 19.2 °F 81% 29.75 in 10.0 mi SSW 26.5 mph 35.7 mph N/A   Clear
10:58 PM 23.7 °F 7.5 °F 19.0 °F 82% 29.75 in 10.0 mi SSW 25.3 mph 33.4 mph N/A   Clear
11:17 PM 23.0 °F 6.0 °F 18.9 °F 84% 29.74 in 7.0 mi SSW 27.6 mph 36.8 mph N/A   Clear
11:34 PM 23.2 °F 5.9 °F 20.5 °F 89% 29.74 in 5.0 mi SSW 28.8 mph 39.1 mph N/A   Mostly Cloudy